Time,TemperatureF,DewpointF,PressureIn,WindDirection,WindDirectionDegrees,WindSpeedMPH,WindSpeedGustMPH,Humidity,HourlyPrecipIn,Conditions,Clouds,dailyrainin,SoftwareType,DateUTC
2013-04-26 00:00:00,46.0,29.0,29.96,NNE,22,6.0,11.0,52,0.00,,,0.05,Rainwise IP-100,2013-04-26 04:00:00,
2013-04-26 00:01:00,46.0,29.0,29.96,NNE,22,7.0,10.0,52,0.00,,,0.00,Rainwise IP-100,2013-04-26 04:01:00,
2013-04-26 00:06:00,46.0,29.0,29.97,NNE,22,6.0,12.0,52,0.00,,,0.00,Rainwise IP-100,2013-04-26 04:06:00,
2013-04-26 00:11:00,46.0,29.0,29.97,NNE,22,7.0,13.0,51,0.00,,,0.00,Rainwise IP-100,2013-04-26 04:11:00,
2013-04-26 00:16:00,46.0,29.0,29.97,NE,45,12.0,12.0,51,0.00,,,0.00,Rainwise IP-100,2013-04-26 04:16:00,
2013-04-26 00:21:00,46.0,29.0,29.96,ENE,67,4.0,13.0,50,0.00,,,0.00,Rainwise IP-100,2013-04-26 04:21:00,
2013-04-26 00:26:00,46.0,29.0,29.96,North,360,9.0,10.0,51,0.00,,,0.00,Rainwise IP-100,2013-04-26 04:26:00,
2013-04-26 00:31:00,46.0,29.0,29.98,NE,45,8.0,12.0,50,0.00,,,0.00,Rainwise IP-100,2013-04-26 04:31:00,
2013-04-26 00:36:00,45.0,29.0,29.98,NE,45,6.0,10.0,52,0.00,,,0.00,Rainwise IP-100,2013-04-26 04:36:00,
2013-04-26 00:41:00,45.0,29.0,29.98,North,360,3.0,10.0,52,0.00,,,0.00,Rainwise IP-100,2013-04-26 04:41:00,
2013-04-26 00:46:00,45.0,29.0,29.98,NE,45,3.0,10.0,52,0.00,,,0.00,Rainwise IP-100,2013-04-26 04:46:00,
2013-04-26 00:51:00,45.0,28.0,29.98,NE,45,6.0,9.0,51,0.00,,,0.00,Rainwise IP-100,2013-04-26 04:51:00,
2013-04-26 00:56:00,45.0,28.0,29.98,NNE,22,5.0,9.0,51,0.00,,,0.00,Rainwise IP-100,2013-04-26 04:56:00,
2013-04-26 01:01:00,45.0,28.0,30.00,NNE,22,6.0,9.0,50,0.00,,,0.00,Rainwise IP-100,2013-04-26 05:01:00,
2013-04-26 01:06:00,45.0,28.0,30.00,NE,45,6.0,11.0,50,0.00,,,0.00,Rainwise IP-100,2013-04-26 05:06:00,
2013-04-26 01:11:00,46.0,28.0,29.98,NNE,22,6.0,8.0,48,0.00,,,0.00,Rainwise IP-100,2013-04-26 05:11:00,
2013-04-26 01:16:00,45.0,28.0,29.98,NNE,22,6.0,10.0,49,0.00,,,0.00,Rainwise IP-100,2013-04-26 05:16:00,
2013-04-26 01:21:00,46.0,28.0,30.00,NE,45,4.0,9.0,49,0.00,,,0.00,Rainwise IP-100,2013-04-26 05:21:00,
2013-04-26 01:26:00,45.0,28.0,30.00,ENE,67,4.0,7.0,50,0.00,,,0.00,Rainwise IP-100,2013-04-26 05:26:00,
2013-04-26 01:31:00,45.0,28.0,30.00,NNE,22,5.0,8.0,50,0.00,,,0.00,Rainwise IP-100,2013-04-26 05:31:00,
2013-04-26 01:33:00,45.0,28.0,30.00,NNE,22,5.0,9.0,50,0.00,,,0.00,Rainwise IP-100,2013-04-26 05:33:00,
2013-04-26 01:36:00,45.0,28.0,30.00,ENE,67,5.0,9.0,51,0.00,,,0.00,Rainwise IP-100,2013-04-26 05:36:00,
2013-04-26 01:41:00,45.0,28.0,30.00,NE,45,7.0,10.0,50,0.00,,,0.00,Rainwise IP-100,2013-04-26 05:41:00,
2013-04-26 01:46:00,45.0,28.0,30.00,NE,45,6.0,8.0,51,0.00,,,0.00,Rainwise IP-100,2013-04-26 05:46:00,
2013-04-26 01:51:00,45.0,28.0,29.98,NNE,22,5.0,10.0,50,0.00,,,0.00,Rainwise IP-100,2013-04-26 05:51:00,
2013-04-26 01:56:00,44.0,28.0,29.98,NE,45,6.0,8.0,51,0.00,,,0.00,Rainwise IP-100,2013-04-26 05:56:00,
2013-04-26 02:01:00,44.0,28.0,29.98,ENE,67,4.0,7.0,52,0.00,,,0.00,Rainwise IP-100,2013-04-26 06:01:00,
2013-04-26 02:06:00,44.0,28.0,29.98,ENE,67,3.0,6.0,53,0.00,,,0.00,Rainwise IP-100,2013-04-26 06:06:00,
2013-04-26 02:11:00,44.0,28.0,30.00,ENE,67,4.0,7.0,53,0.00,,,0.00,Rainwise IP-100,2013-04-26 06:11:00,
2013-04-26 02:16:00,43.0,28.0,30.00,ESE,112,1.0,6.0,54,0.00,,,0.00,Rainwise IP-100,2013-04-26 06:16:00,
2013-04-26 02:21:00,42.0,29.0,29.98,SE,135,3.0,4.0,58,0.00,,,0.00,Rainwise IP-100,2013-04-26 06:21:00,
2013-04-26 02:26:00,41.0,29.0,29.98,East,90,3.0,4.0,62,0.00,,,0.00,Rainwise IP-100,2013-04-26 06:26:00,
2013-04-26 02:31:00,41.0,29.0,29.99,ENE,67,1.0,4.0,63,0.00,,,0.00,Rainwise IP-100,2013-04-26 06:31:00,
2013-04-26 02:36:00,41.0,29.0,29.99,NE,45,1.0,6.0,60,0.00,,,0.00,Rainwise IP-100,2013-04-26 06:36:00,
2013-04-26 02:41:00,42.0,28.0,29.99,NE,45,3.0,6.0,57,0.00,,,0.00,Rainwise IP-100,2013-04-26 06:41:00,
2013-04-26 02:46:00,43.0,29.0,29.99,ENE,67,2.0,9.0,56,0.00,,,0.00,Rainwise IP-100,2013-04-26 06:46:00,
2013-04-26 02:51:00,43.0,28.0,30.00,NE,45,3.0,6.0,54,0.00,,,0.00,Rainwise IP-100,2013-04-26 06:51:00,
2013-04-26 02:56:00,44.0,28.0,30.00,ENE,67,4.0,13.0,53,0.00,,,0.00,Rainwise IP-100,2013-04-26 06:56:00,
2013-04-26 03:01:00,44.0,28.0,30.00,NE,45,4.0,10.0,51,0.00,,,0.00,Rainwise IP-100,2013-04-26 07:01:00,
2013-04-26 03:06:00,44.0,28.0,30.01,NE,45,8.0,10.0,52,0.00,,,0.00,Rainwise IP-100,2013-04-26 07:06:00,
2013-04-26 03:11:00,44.0,28.0,30.02,NE,45,4.0,9.0,52,0.00,,,0.00,Rainwise IP-100,2013-04-26 07:11:00,
2013-04-26 03:16:00,44.0,28.0,30.02,NE,45,4.0,6.0,52,0.00,,,0.00,Rainwise IP-100,2013-04-26 07:16:00,
2013-04-26 03:21:00,45.0,28.0,30.02,ENE,67,5.0,13.0,50,0.00,,,0.00,Rainwise IP-100,2013-04-26 07:21:00,
2013-04-26 03:26:00,45.0,28.0,30.02,NE,45,5.0,9.0,50,0.00,,,0.00,Rainwise IP-100,2013-04-26 07:26:00,
2013-04-26 03:31:00,46.0,28.0,30.02,NE,45,6.0,12.0,48,0.00,,,0.00,Rainwise IP-100,2013-04-26 07:31:00,
2013-04-26 03:36:00,45.0,28.0,30.02,ENE,67,9.0,9.0,49,0.00,,,0.00,Rainwise IP-100,2013-04-26 07:36:00,
2013-04-26 03:41:00,45.0,28.0,30.02,NE,45,6.0,10.0,49,0.00,,,0.00,Rainwise IP-100,2013-04-26 07:41:00,
2013-04-26 03:46:00,45.0,28.0,30.02,NE,45,7.0,10.0,50,0.00,,,0.00,Rainwise IP-100,2013-04-26 07:46:00,
2013-04-26 03:51:00,45.0,28.0,30.03,NNE,22,3.0,10.0,50,0.00,,,0.00,Rainwise IP-100,2013-04-26 07:51:00,
2013-04-26 03:56:00,45.0,28.0,30.03,NE,45,7.0,10.0,50,0.00,,,0.00,Rainwise IP-100,2013-04-26 07:56:00,
2013-04-26 04:01:00,45.0,28.0,30.04,NE,45,9.0,11.0,50,0.00,,,0.00,Rainwise IP-100,2013-04-26 08:01:00,
2013-04-26 04:06:00,45.0,28.0,30.04,NE,45,5.0,12.0,51,0.00,,,0.00,Rainwise IP-100,2013-04-26 08:06:00,
2013-04-26 04:11:00,45.0,28.0,30.04,North,360,5.0,13.0,51,0.00,,,0.00,Rainwise IP-100,2013-04-26 08:11:00,
2013-04-26 04:16:00,44.0,28.0,30.04,NNE,22,8.0,12.0,52,0.00,,,0.00,Rainwise IP-100,2013-04-26 08:16:00,
2013-04-26 04:21:00,44.0,28.0,30.04,NNE,22,8.0,14.0,52,0.00,,,0.00,Rainwise IP-100,2013-04-26 08:21:00,
2013-04-26 04:26:00,44.0,28.0,30.04,NE,45,5.0,12.0,53,0.00,,,0.00,Rainwise IP-100,2013-04-26 08:26:00,
2013-04-26 04:31:00,44.0,28.0,30.04,NNE,22,6.0,14.0,53,0.00,,,0.00,Rainwise IP-100,2013-04-26 08:31:00,
2013-04-26 04:36:00,43.0,28.0,30.04,North,360,10.0,10.0,53,0.00,,,0.00,Rainwise IP-100,2013-04-26 08:36:00,
2013-04-26 04:41:00,43.0,28.0,30.04,NNE,22,6.0,11.0,54,0.00,,,0.00,Rainwise IP-100,2013-04-26 08:41:00,
2013-04-26 04:46:00,43.0,28.0,30.04,ENE,67,6.0,13.0,54,0.00,,,0.00,Rainwise IP-100,2013-04-26 08:46:00,
2013-04-26 04:51:00,43.0,28.0,30.04,NE,45,10.0,11.0,54,0.00,,,0.00,Rainwise IP-100,2013-04-26 08:51:00,
2013-04-26 04:56:00,42.0,28.0,30.04,North,360,6.0,10.0,56,0.00,,,0.00,Rainwise IP-100,2013-04-26 08:56:00,
2013-04-26 05:00:00,42.0,28.0,30.04,NNE,22,5.0,14.0,55,0.00,,,0.00,Rainwise IP-100,2013-04-26 09:00:00,
2013-04-26 05:05:00,42.0,28.0,30.05,NE,45,7.0,12.0,55,0.00,,,0.00,Rainwise IP-100,2013-04-26 09:05:00,
2013-04-26 05:10:00,42.0,28.0,30.05,NNE,22,7.0,10.0,55,0.00,,,0.00,Rainwise IP-100,2013-04-26 09:10:00,
2013-04-26 05:15:00,42.0,28.0,30.05,North,360,3.0,11.0,55,0.00,,,0.00,Rainwise IP-100,2013-04-26 09:15:00,
2013-04-26 05:20:00,42.0,28.0,30.05,North,360,8.0,13.0,55,0.00,,,0.00,Rainwise IP-100,2013-04-26 09:20:00,
2013-04-26 05:25:00,42.0,28.0,30.05,NNE,22,7.0,12.0,54,0.00,,,0.00,Rainwise IP-100,2013-04-26 09:25:00,
2013-04-26 05:30:00,42.0,28.0,30.05,NNE,22,7.0,11.0,55,0.00,,,0.00,Rainwise IP-100,2013-04-26 09:30:00,
2013-04-26 05:35:00,42.0,28.0,30.05,NNE,22,10.0,13.0,55,0.00,,,0.00,Rainwise IP-100,2013-04-26 09:35:00,
2013-04-26 05:40:00,42.0,28.0,30.05,NE,45,7.0,13.0,55,0.00,,,0.00,Rainwise IP-100,2013-04-26 09:40:00,
2013-04-26 05:45:00,42.0,28.0,30.05,ENE,67,9.0,10.0,56,0.00,,,0.00,Rainwise IP-100,2013-04-26 09:45:00,
2013-04-26 05:50:00,42.0,28.0,30.05,NNE,22,6.0,14.0,55,0.00,,,0.00,Rainwise IP-100,2013-04-26 09:50:00,
2013-04-26 05:55:00,42.0,28.0,30.05,North,360,7.0,13.0,55,0.00,,,0.00,Rainwise IP-100,2013-04-26 09:55:00,
2013-04-26 06:00:00,42.0,28.0,30.05,NE,45,7.0,13.0,56,0.00,,,0.00,Rainwise IP-100,2013-04-26 10:00:00,
2013-04-26 06:05:00,42.0,28.0,30.07,NE,45,8.0,15.0,55,0.00,,,0.00,Rainwise IP-100,2013-04-26 10:05:00,
2013-04-26 06:10:00,43.0,28.0,30.07,NNE,22,10.0,15.0,54,0.00,,,0.00,Rainwise IP-100,2013-04-26 10:10:00,
2013-04-26 06:15:00,43.0,28.0,30.07,ENE,67,8.0,12.0,54,0.00,,,0.00,Rainwise IP-100,2013-04-26 10:15:00,
2013-04-26 06:20:00,43.0,28.0,30.07,NNE,22,8.0,12.0,54,0.00,,,0.00,Rainwise IP-100,2013-04-26 10:20:00,
2013-04-26 06:25:00,43.0,28.0,30.08,NE,45,10.0,13.0,54,0.00,,,0.00,Rainwise IP-100,2013-04-26 10:25:00,
2013-04-26 06:30:00,43.0,28.0,30.08,NE,45,7.0,12.0,54,0.00,,,0.00,Rainwise IP-100,2013-04-26 10:30:00,
2013-04-26 06:35:00,43.0,28.0,30.09,East,90,4.0,12.0,55,0.00,,,0.00,Rainwise IP-100,2013-04-26 10:35:00,
2013-04-26 06:40:00,43.0,29.0,30.09,North,360,1.0,11.0,56,0.00,,,0.00,Rainwise IP-100,2013-04-26 10:40:00,
2013-04-26 06:45:00,43.0,29.0,30.10,NE,45,6.0,14.0,57,0.00,,,0.00,Rainwise IP-100,2013-04-26 10:45:00,
2013-04-26 06:50:00,43.0,29.0,30.10,East,90,8.0,12.0,57,0.00,,,0.00,Rainwise IP-100,2013-04-26 10:50:00,
2013-04-26 06:55:00,43.0,29.0,30.10,ESE,112,4.0,10.0,57,0.00,,,0.00,Rainwise IP-100,2013-04-26 10:55:00,
2013-04-26 07:00:00,43.0,29.0,30.10,East,90,12.0,12.0,58,0.00,,,0.00,Rainwise IP-100,2013-04-26 11:00:00,
2013-04-26 07:05:00,43.0,31.0,30.11,NE,45,10.0,15.0,59,0.00,,,0.00,Rainwise IP-100,2013-04-26 11:05:00,
2013-04-26 07:10:00,43.0,31.0,30.11,East,90,5.0,16.0,59,0.00,,,0.00,Rainwise IP-100,2013-04-26 11:10:00,
2013-04-26 07:15:00,44.0,31.0,30.12,East,90,6.0,11.0,59,0.00,,,0.00,Rainwise IP-100,2013-04-26 11:15:00,
2013-04-26 07:20:00,44.0,31.0,30.12,NE,45,9.0,9.0,58,0.00,,,0.00,Rainwise IP-100,2013-04-26 11:20:00,
2013-04-26 07:25:00,44.0,31.0,30.12,ESE,112,7.0,12.0,58,0.00,,,0.00,Rainwise IP-100,2013-04-26 11:25:00,
2013-04-26 07:30:00,44.0,31.0,30.12,NNE,22,6.0,10.0,58,0.00,,,0.00,Rainwise IP-100,2013-04-26 11:30:00,
2013-04-26 07:35:00,45.0,31.0,30.11,ENE,67,5.0,6.0,56,0.00,,,0.00,Rainwise IP-100,2013-04-26 11:35:00,
2013-04-26 07:40:00,46.0,31.0,30.11,NE,45,7.0,13.0,56,0.00,,,0.00,Rainwise IP-100,2013-04-26 11:40:00,
2013-04-26 07:45:00,46.0,31.0,30.12,ENE,67,5.0,15.0,55,0.00,,,0.00,Rainwise IP-100,2013-04-26 11:45:00,
2013-04-26 07:50:00,46.0,31.0,30.12,ESE,112,6.0,10.0,55,0.00,,,0.00,Rainwise IP-100,2013-04-26 11:50:00,
2013-04-26 07:55:00,46.0,31.0,30.13,ESE,112,7.0,14.0,55,0.00,,,0.00,Rainwise IP-100,2013-04-26 11:55:00,
2013-04-26 08:00:00,47.0,31.0,30.13,East,90,5.0,10.0,53,0.00,,,0.00,Rainwise IP-100,2013-04-26 12:00:00,
2013-04-26 08:05:00,46.0,29.0,30.14,ESE,112,3.0,16.0,53,0.00,,,0.00,Rainwise IP-100,2013-04-26 12:05:00,
2013-04-26 08:09:00,46.0,29.0,30.14,ESE,112,3.0,16.0,53,0.00,,,0.00,Rainwise IP-100,2013-04-26 12:09:00,
2013-04-26 08:16:00,46.0,29.0,30.14,NE,45,10.0,10.0,52,0.00,,,0.00,Rainwise IP-100,2013-04-26 12:16:00,
2013-04-26 08:21:00,46.0,29.0,30.14,NE,45,4.0,10.0,52,0.00,,,0.00,Rainwise IP-100,2013-04-26 12:21:00,
2013-04-26 08:26:00,47.0,29.0,30.14,ENE,67,13.0,15.0,51,0.00,,,0.00,Rainwise IP-100,2013-04-26 12:26:00,
2013-04-26 08:31:00,47.0,29.0,30.14,ESE,112,10.0,14.0,51,0.00,,,0.00,Rainwise IP-100,2013-04-26 12:31:00,
2013-04-26 08:36:00,47.0,29.0,30.15,NE,45,10.0,12.0,50,0.00,,,0.00,Rainwise IP-100,2013-04-26 12:36:00,
2013-04-26 08:41:00,48.0,31.0,30.15,NE,45,4.0,11.0,50,0.00,,,0.00,Rainwise IP-100,2013-04-26 12:41:00,
2013-04-26 08:46:00,48.0,29.0,30.14,NNE,22,3.0,8.0,48,0.00,,,0.00,Rainwise IP-100,2013-04-26 12:46:00,
2013-04-26 08:51:00,48.0,29.0,30.14,NE,45,6.0,8.0,48,0.00,,,0.00,Rainwise IP-100,2013-04-26 12:51:00,
2013-04-26 08:56:00,48.0,29.0,30.14,SSE,157,5.0,9.0,47,0.00,,,0.00,Rainwise IP-100,2013-04-26 12:56:00,
2013-04-26 09:01:00,49.0,29.0,30.14,South,180,4.0,10.0,47,0.00,,,0.00,Rainwise IP-100,2013-04-26 13:01:00,
2013-04-26 09:06:00,49.0,29.0,30.16,SE,135,4.0,10.0,47,0.00,,,0.00,Rainwise IP-100,2013-04-26 13:06:00,
2013-04-26 09:11:00,49.0,29.0,30.15,NE,45,7.0,11.0,47,0.00,,,0.00,Rainwise IP-100,2013-04-26 13:11:00,
2013-04-26 09:16:00,49.0,29.0,30.15,East,90,9.0,16.0,46,0.00,,,0.00,Rainwise IP-100,2013-04-26 13:16:00,
2013-04-26 09:21:00,49.0,29.0,30.15,East,90,9.0,11.0,46,0.00,,,0.00,Rainwise IP-100,2013-04-26 13:21:00,
2013-04-26 09:27:00,49.0,29.0,30.15,East,90,9.0,11.0,46,0.00,,,0.00,Rainwise IP-100,2013-04-26 13:27:00,
2013-04-26 09:32:00,51.0,29.0,30.15,ENE,67,9.0,11.0,43,0.00,,,0.00,Rainwise IP-100,2013-04-26 13:32:00,
2013-04-26 09:38:00,50.0,29.0,30.15,NNE,22,5.0,9.0,44,0.00,,,0.00,Rainwise IP-100,2013-04-26 13:38:00,
2013-04-26 09:43:00,50.0,29.0,30.16,ENE,67,8.0,12.0,44,0.00,,,0.00,Rainwise IP-100,2013-04-26 13:43:00,
2013-04-26 09:48:00,51.0,29.0,30.16,NE,45,10.0,15.0,43,0.00,,,0.00,Rainwise IP-100,2013-04-26 13:48:00,
2013-04-26 09:53:00,51.0,29.0,30.16,ENE,67,9.0,11.0,42,0.00,,,0.00,Rainwise IP-100,2013-04-26 13:53:00,
2013-04-26 09:58:00,51.0,29.0,30.16,East,90,7.0,10.0,42,0.00,,,0.00,Rainwise IP-100,2013-04-26 13:58:00,
2013-04-26 10:03:00,51.0,32.0,30.16,SE,135,3.0,9.0,47,0.00,,,0.00,Rainwise IP-100,2013-04-26 14:03:00,
2013-04-26 10:08:00,51.0,32.0,30.16,SSE,157,5.0,8.0,47,0.00,,,0.00,Rainwise IP-100,2013-04-26 14:08:00,
2013-04-26 10:19:00,50.0,31.0,30.17,SE,135,4.0,7.0,48,0.00,,,0.00,Rainwise IP-100,2013-04-26 14:19:00,
2013-04-26 10:24:00,51.0,31.0,30.16,SSE,157,3.0,8.0,45,0.00,,,0.00,Rainwise IP-100,2013-04-26 14:24:00,
2013-04-26 10:50:00,51.0,29.0,30.16,SSE,157,8.0,8.0,43,0.00,,,0.00,Rainwise IP-100,2013-04-26 14:50:00,
2013-04-26 10:56:00,52.0,32.0,30.16,SE,135,8.0,9.0,47,0.00,,,0.00,Rainwise IP-100,2013-04-26 14:56:00,
2013-04-26 11:01:00,52.0,33.0,30.16,SSE,157,5.0,9.0,48,0.00,,,0.00,Rainwise IP-100,2013-04-26 15:01:00,
2013-04-26 11:02:00,52.0,33.0,30.16,SSE,157,5.0,9.0,48,0.00,,,0.00,Rainwise IP-100,2013-04-26 15:02:00,
2013-04-26 11:11:00,52.0,33.0,30.16,SSE,157,6.0,8.0,48,0.00,,,0.00,Rainwise IP-100,2013-04-26 15:11:00,
2013-04-26 11:28:00,52.0,33.0,30.16,SSE,157,6.0,11.0,48,0.00,,,0.00,Rainwise IP-100,2013-04-26 15:28:00,
2013-04-26 11:36:00,52.0,32.0,30.16,SE,135,10.0,10.0,47,0.00,,,0.00,Rainwise IP-100,2013-04-26 15:36:00,
2013-04-26 11:41:00,52.0,32.0,30.16,South,180,5.0,10.0,45,0.00,,,0.00,Rainwise IP-100,2013-04-26 15:41:00,
2013-04-26 11:42:00,52.0,32.0,30.16,South,180,5.0,10.0,45,0.00,,,0.00,Rainwise IP-100,2013-04-26 15:42:00,
2013-04-26 12:03:00,53.0,32.0,30.16,South,180,10.0,10.0,44,0.00,,,0.00,Rainwise IP-100,2013-04-26 16:03:00,
2013-04-26 12:09:00,53.0,31.0,30.16,SE,135,10.0,10.0,43,0.00,,,0.00,Rainwise IP-100,2013-04-26 16:09:00,
2013-04-26 12:14:00,54.0,32.0,30.15,SE,135,7.0,10.0,44,0.00,,,0.00,Rainwise IP-100,2013-04-26 16:14:00,
2013-04-26 12:19:00,54.0,32.0,30.15,SE,135,7.0,10.0,44,0.00,,,0.00,Rainwise IP-100,2013-04-26 16:19:00,
2013-04-26 12:24:00,54.0,32.0,30.15,SE,135,7.0,10.0,44,0.00,,,0.00,Rainwise IP-100,2013-04-26 16:24:00,
2013-04-26 12:29:00,54.0,32.0,30.15,SE,135,7.0,10.0,44,0.00,,,0.00,Rainwise IP-100,2013-04-26 16:29:00,
2013-04-26 12:34:00,54.0,32.0,30.15,SE,135,7.0,10.0,44,0.00,,,0.00,Rainwise IP-100,2013-04-26 16:34:00,
2013-04-26 12:39:00,54.0,29.0,30.15,South,180,9.0,10.0,38,0.00,,,0.00,Rainwise IP-100,2013-04-26 16:39:00,
2013-04-26 12:44:00,56.0,29.0,30.15,ESE,112,9.0,10.0,35,0.00,,,0.00,Rainwise IP-100,2013-04-26 16:44:00,
2013-04-26 12:49:00,56.0,31.0,30.15,SSE,157,4.0,9.0,37,0.00,,,0.00,Rainwise IP-100,2013-04-26 16:49:00,
2013-04-26 12:58:00,55.0,32.0,30.14,SSE,157,6.0,9.0,40,0.00,,,0.00,Rainwise IP-100,2013-04-26 16:58:00,
2013-04-26 13:06:00,55.0,31.0,30.13,South,180,8.0,9.0,38,0.00,,,0.00,Rainwise IP-100,2013-04-26 17:06:00,
2013-04-26 13:11:00,55.0,29.0,30.13,South,180,8.0,10.0,37,0.00,,,0.00,Rainwise IP-100,2013-04-26 17:11:00,
2013-04-26 13:16:00,55.0,31.0,30.14,SSE,157,8.0,9.0,38,0.00,,,0.00,Rainwise IP-100,2013-04-26 17:16:00,
2013-04-26 13:21:00,56.0,31.0,30.14,SE,135,7.0,11.0,38,0.00,,,0.00,Rainwise IP-100,2013-04-26 17:21:00,
2013-04-26 13:28:00,55.0,32.0,30.14,South,180,8.0,8.0,40,0.00,,,0.00,Rainwise IP-100,2013-04-26 17:28:00,
2013-04-26 13:33:00,54.0,31.0,30.14,SSE,157,9.0,9.0,41,0.00,,,0.00,Rainwise IP-100,2013-04-26 17:33:00,
2013-04-26 13:38:00,54.0,32.0,30.14,SE,135,4.0,10.0,44,0.00,,,0.00,Rainwise IP-100,2013-04-26 17:38:00,
2013-04-26 13:43:00,54.0,32.0,30.13,SE,135,6.0,8.0,43,0.00,,,0.00,Rainwise IP-100,2013-04-26 17:43:00,
2013-04-26 13:48:00,55.0,33.0,30.13,SE,135,9.0,9.0,44,0.00,,,0.00,Rainwise IP-100,2013-04-26 17:48:00,
2013-04-26 13:53:00,54.0,33.0,30.13,SE,135,6.0,11.0,45,0.00,,,0.00,Rainwise IP-100,2013-04-26 17:53:00,
2013-04-26 13:58:00,55.0,33.0,30.13,SSE,157,8.0,10.0,44,0.00,,,0.00,Rainwise IP-100,2013-04-26 17:58:00,
2013-04-26 14:03:00,55.0,35.0,30.14,South,180,7.0,10.0,45,0.00,,,0.00,Rainwise IP-100,2013-04-26 18:03:00,
2013-04-26 14:08:00,56.0,32.0,30.14,SSE,157,7.0,10.0,41,0.00,,,0.00,Rainwise IP-100,2013-04-26 18:08:00,
2013-04-26 14:14:00,56.0,32.0,30.14,SSW,202,4.0,8.0,41,0.00,,,0.00,Rainwise IP-100,2013-04-26 18:14:00,
2013-04-26 14:19:00,56.0,33.0,30.14,SSE,157,9.0,9.0,42,0.00,,,0.00,Rainwise IP-100,2013-04-26 18:19:00,
2013-04-26 14:24:00,54.0,33.0,30.12,SE,135,10.0,13.0,46,0.00,,,0.00,Rainwise IP-100,2013-04-26 18:24:00,
2013-04-26 14:29:00,54.0,35.0,30.12,SE,135,2.0,15.0,48,0.00,,,0.00,Rainwise IP-100,2013-04-26 18:29:00,
2013-04-26 14:34:00,55.0,36.0,30.12,South,180,6.0,14.0,47,0.00,,,0.00,Rainwise IP-100,2013-04-26 18:34:00,
2013-04-26 14:39:00,55.0,36.0,30.12,ESE,112,7.0,14.0,47,0.00,,,0.00,Rainwise IP-100,2013-04-26 18:39:00,
2013-04-26 14:44:00,54.0,35.0,30.12,SE,135,11.0,18.0,48,0.00,,,0.00,Rainwise IP-100,2013-04-26 18:44:00,
2013-04-26 14:49:00,53.0,33.0,30.12,East,90,9.0,14.0,47,0.00,,,0.00,Rainwise IP-100,2013-04-26 18:49:00,
2013-04-26 14:54:00,54.0,35.0,30.13,SE,135,10.0,13.0,47,0.00,,,0.00,Rainwise IP-100,2013-04-26 18:54:00,
2013-04-26 14:59:00,54.0,35.0,30.13,SE,135,2.0,10.0,48,0.00,,,0.00,Rainwise IP-100,2013-04-26 18:59:00,
2013-04-26 15:04:00,54.0,35.0,30.12,SSW,202,3.0,10.0,48,0.00,,,0.00,Rainwise IP-100,2013-04-26 19:04:00,
2013-04-26 15:09:00,54.0,35.0,30.12,SSW,202,3.0,7.0,48,0.00,,,0.00,Rainwise IP-100,2013-04-26 19:09:00,
2013-04-26 15:14:00,55.0,35.0,30.12,SSW,202,7.0,9.0,46,0.00,,,0.00,Rainwise IP-100,2013-04-26 19:14:00,
2013-04-26 15:19:00,55.0,35.0,30.12,SSW,202,7.0,9.0,46,0.00,,,0.00,Rainwise IP-100,2013-04-26 19:19:00,
2013-04-26 15:24:00,54.0,33.0,30.12,SE,135,13.0,15.0,46,0.00,,,0.00,Rainwise IP-100,2013-04-26 19:24:00,
2013-04-26 15:29:00,53.0,35.0,30.12,ESE,112,5.0,15.0,50,0.00,,,0.00,Rainwise IP-100,2013-04-26 19:29:00,
2013-04-26 15:34:00,54.0,36.0,30.12,ESE,112,4.0,8.0,49,0.00,,,0.00,Rainwise IP-100,2013-04-26 19:34:00,
2013-04-26 15:40:00,53.0,33.0,30.12,ESE,112,4.0,9.0,48,0.00,,,0.00,Rainwise IP-100,2013-04-26 19:40:00,
2013-04-26 15:45:00,53.0,33.0,30.12,SSE,157,7.0,13.0,48,0.00,,,0.00,Rainwise IP-100,2013-04-26 19:45:00,
2013-04-26 15:50:00,53.0,33.0,30.12,SE,135,5.0,11.0,47,0.00,,,0.00,Rainwise IP-100,2013-04-26 19:50:00,
2013-04-26 15:55:00,53.0,33.0,30.11,ESE,112,5.0,12.0,48,0.00,,,0.00,Rainwise IP-100,2013-04-26 19:55:00,
2013-04-26 16:00:00,53.0,33.0,30.11,SSE,157,6.0,8.0,48,0.00,,,0.00,Rainwise IP-100,2013-04-26 20:00:00,
2013-04-26 16:05:00,53.0,33.0,30.11,SSE,157,6.0,8.0,48,0.00,,,0.00,Rainwise IP-100,2013-04-26 20:05:00,
2013-04-26 16:10:00,53.0,33.0,30.11,SSE,157,6.0,8.0,48,0.00,,,0.00,Rainwise IP-100,2013-04-26 20:10:00,
2013-04-26 16:15:00,53.0,33.0,30.11,ESE,112,5.0,8.0,48,0.00,,,0.00,Rainwise IP-100,2013-04-26 20:15:00,
2013-04-26 16:20:00,55.0,37.0,30.10,ESE,112,2.0,8.0,51,0.00,,,0.00,Rainwise IP-100,2013-04-26 20:20:00,
2013-04-26 16:25:00,55.0,37.0,30.10,South,180,4.0,6.0,51,0.00,,,0.00,Rainwise IP-100,2013-04-26 20:25:00,
2013-04-26 16:30:00,55.0,37.0,30.10,South,180,4.0,6.0,51,0.00,,,0.00,Rainwise IP-100,2013-04-26 20:30:00,
2013-04-26 16:35:00,57.0,38.0,30.10,SE,135,2.0,6.0,49,0.00,,,0.00,Rainwise IP-100,2013-04-26 20:35:00,
2013-04-26 16:40:00,55.0,37.0,30.10,SE,135,7.0,7.0,49,0.00,,,0.00,Rainwise IP-100,2013-04-26 20:40:00,
2013-04-26 16:45:00,54.0,36.0,30.10,East,90,5.0,9.0,51,0.00,,,0.00,Rainwise IP-100,2013-04-26 20:45:00,
2013-04-26 16:46:00,54.0,36.0,30.10,ESE,112,1.0,9.0,51,0.00,,,0.00,Rainwise IP-100,2013-04-26 20:46:00,
2013-04-26 16:51:00,54.0,36.0,30.10,ESE,112,1.0,5.0,51,0.00,,,0.00,Rainwise IP-100,2013-04-26 20:51:00,
2013-04-26 16:56:00,54.0,36.0,30.10,East,90,4.0,5.0,51,0.00,,,0.00,Rainwise IP-100,2013-04-26 20:56:00,
2013-04-26 17:01:00,54.0,36.0,30.10,East,90,4.0,5.0,51,0.00,,,0.00,Rainwise IP-100,2013-04-26 21:01:00,
2013-04-26 17:06:00,54.0,36.0,30.10,East,90,5.0,5.0,51,0.00,,,0.00,Rainwise IP-100,2013-04-26 21:06:00,
2013-04-26 17:11:00,54.0,36.0,30.10,ESE,112,1.0,5.0,51,0.00,,,0.00,Rainwise IP-100,2013-04-26 21:11:00,
2013-04-26 17:16:00,54.0,37.0,30.09,SSE,157,5.0,6.0,52,0.00,,,0.00,Rainwise IP-100,2013-04-26 21:16:00,
2013-04-26 17:41:00,52.0,36.0,30.09,SE,135,3.0,6.0,54,0.00,,,0.00,Rainwise IP-100,2013-04-26 21:41:00,
2013-04-26 17:46:00,52.0,36.0,30.09,ESE,112,4.0,9.0,55,0.00,,,0.00,Rainwise IP-100,2013-04-26 21:46:00,
2013-04-26 17:51:00,52.0,37.0,30.10,East,90,5.0,8.0,56,0.00,,,0.00,Rainwise IP-100,2013-04-26 21:51:00,
2013-04-26 17:56:00,52.0,37.0,30.10,East,90,3.0,6.0,56,0.00,,,0.00,Rainwise IP-100,2013-04-26 21:56:00,
2013-04-26 18:01:00,52.0,39.0,30.10,SE,135,4.0,4.0,61,0.00,,,0.00,Rainwise IP-100,2013-04-26 22:01:00,
2013-04-26 18:06:00,52.0,39.0,30.10,SE,135,0.0,6.0,62,0.00,,,0.00,Rainwise IP-100,2013-04-26 22:06:00,
2013-04-26 18:11:00,52.0,39.0,30.10,East,90,2.0,4.0,61,0.00,,,0.00,Rainwise IP-100,2013-04-26 22:11:00,
2013-04-26 18:16:00,52.0,41.0,30.10,North,360,2.0,4.0,67,0.00,,,0.00,Rainwise IP-100,2013-04-26 22:16:00,
2013-04-26 18:21:00,53.0,36.0,30.10,West,270,3.0,6.0,53,0.00,,,0.00,Rainwise IP-100,2013-04-26 22:21:00,
2013-04-26 18:26:00,53.0,37.0,30.10,WSW,247,4.0,8.0,56,0.00,,,0.00,Rainwise IP-100,2013-04-26 22:26:00,
2013-04-26 18:31:00,53.0,32.0,30.10,West,270,7.0,9.0,46,0.00,,,0.00,Rainwise IP-100,2013-04-26 22:31:00,
2013-04-26 18:34:00,53.0,33.0,30.10,West,270,6.0,10.0,47,0.00,,,0.00,Rainwise IP-100,2013-04-26 22:34:00,
2013-04-26 18:39:00,52.0,33.0,30.10,WSW,247,3.0,10.0,48,0.00,,,0.00,Rainwise IP-100,2013-04-26 22:39:00,
2013-04-26 18:44:00,52.0,33.0,30.10,West,270,4.0,7.0,48,0.00,,,0.00,Rainwise IP-100,2013-04-26 22:44:00,
2013-04-26 18:49:00,52.0,35.0,30.10,North,360,2.0,6.0,51,0.00,,,0.00,Rainwise IP-100,2013-04-26 22:49:00,
2013-04-26 18:54:00,51.0,33.0,30.10,North,360,3.0,5.0,51,0.00,,,0.00,Rainwise IP-100,2013-04-26 22:54:00,
2013-04-26 18:59:00,51.0,37.0,30.10,West,270,0.0,4.0,57,0.00,,,0.00,Rainwise IP-100,2013-04-26 22:59:00,
2013-04-26 19:04:00,51.0,38.0,30.10,West,270,3.0,5.0,61,0.00,,,0.00,Rainwise IP-100,2013-04-26 23:04:00,
2013-04-26 19:09:00,50.0,33.0,30.10,WSW,247,3.0,6.0,52,0.00,,,0.00,Rainwise IP-100,2013-04-26 23:09:00,
2013-04-26 19:14:00,50.0,36.0,30.10,West,270,4.0,5.0,57,0.00,,,0.00,Rainwise IP-100,2013-04-26 23:14:00,
2013-04-26 19:19:00,49.0,33.0,30.10,West,270,6.0,9.0,53,0.00,,,0.00,Rainwise IP-100,2013-04-26 23:19:00,
2013-04-26 19:24:00,49.0,33.0,30.10,West,270,3.0,7.0,54,0.00,,,0.00,Rainwise IP-100,2013-04-26 23:24:00,
2013-04-26 19:29:00,49.0,36.0,30.10,West,270,3.0,6.0,59,0.00,,,0.00,Rainwise IP-100,2013-04-26 23:29:00,
2013-04-26 19:34:00,48.0,33.0,30.10,West,270,2.0,5.0,55,0.00,,,0.00,Rainwise IP-100,2013-04-26 23:34:00,
2013-04-26 19:39:00,47.0,32.0,30.10,North,360,2.0,4.0,55,0.00,,,0.00,Rainwise IP-100,2013-04-26 23:39:00,
2013-04-26 19:44:00,46.0,32.0,30.10,West,270,0.0,3.0,57,0.00,,,0.00,Rainwise IP-100,2013-04-26 23:44:00,
2013-04-26 19:49:00,46.0,32.0,30.10,North,360,3.0,5.0,58,0.00,,,0.00,Rainwise IP-100,2013-04-26 23:49:00,
2013-04-26 19:54:00,45.0,32.0,30.10,North,360,2.0,3.0,59,0.00,,,0.00,Rainwise IP-100,2013-04-26 23:54:00,
2013-04-26 20:05:00,45.0,32.0,30.10,North,360,3.0,3.0,60,0.00,,,0.00,Rainwise IP-100,2013-04-27 00:05:00,
2013-04-26 20:06:00,45.0,32.0,30.10,North,360,2.0,3.0,60,0.00,,,0.00,Rainwise IP-100,2013-04-27 00:06:00,
2013-04-26 20:07:00,45.0,32.0,30.10,North,360,2.0,3.0,60,0.00,,,0.00,Rainwise IP-100,2013-04-27 00:07:00,
2013-04-26 20:12:00,45.0,32.0,30.10,North,360,3.0,3.0,60,0.00,,,0.00,Rainwise IP-100,2013-04-27 00:12:00,
2013-04-26 20:17:00,45.0,32.0,30.10,North,360,2.0,3.0,60,0.00,,,0.00,Rainwise IP-100,2013-04-27 00:17:00,
2013-04-26 20:22:00,42.0,32.0,30.10,North,360,1.0,3.0,65,0.00,,,0.00,Rainwise IP-100,2013-04-27 00:22:00,
2013-04-26 20:27:00,41.0,31.0,30.10,North,360,2.0,2.0,65,0.00,,,0.00,Rainwise IP-100,2013-04-27 00:27:00,
2013-04-26 20:32:00,41.0,31.0,30.10,North,360,2.0,2.0,65,0.00,,,0.00,Rainwise IP-100,2013-04-27 00:32:00,
2013-04-26 20:37:00,40.0,31.0,30.10,North,360,0.0,2.0,68,0.00,,,0.00,Rainwise IP-100,2013-04-27 00:37:00,
2013-04-26 20:42:00,40.0,32.0,30.10,North,360,0.0,0.0,71,0.00,,,0.00,Rainwise IP-100,2013-04-27 00:42:00,
2013-04-26 20:47:00,40.0,32.0,30.10,North,360,0.0,0.0,71,0.00,,,0.00,Rainwise IP-100,2013-04-27 00:47:00,
2013-04-26 20:52:00,40.0,32.0,30.10,North,360,0.0,0.0,71,0.00,,,0.00,Rainwise IP-100,2013-04-27 00:52:00,
2013-04-26 20:57:00,39.0,32.0,30.10,North,360,3.0,3.0,73,0.00,,,0.00,Rainwise IP-100,2013-04-27 00:57:00,
2013-04-26 21:02:00,39.0,32.0,30.10,NNE,22,4.0,4.0,77,0.00,,,0.00,Rainwise IP-100,2013-04-27 01:02:00,
2013-04-26 21:07:00,40.0,35.0,30.10,NNE,22,3.0,4.0,78,0.00,,,0.00,Rainwise IP-100,2013-04-27 01:07:00,
2013-04-26 21:12:00,40.0,35.0,30.10,NNE,22,0.0,3.0,78,0.00,,,0.00,Rainwise IP-100,2013-04-27 01:12:00,
2013-04-26 21:17:00,39.0,33.0,30.10,NNE,22,1.0,1.0,78,0.00,,,0.00,Rainwise IP-100,2013-04-27 01:17:00,
2013-04-26 21:22:00,39.0,33.0,30.10,NNE,22,3.0,3.0,78,0.00,,,0.00,Rainwise IP-100,2013-04-27 01:22:00,
2013-04-26 21:27:00,38.0,32.0,30.10,NNE,22,2.0,3.0,79,0.00,,,0.00,Rainwise IP-100,2013-04-27 01:27:00,
2013-04-26 21:32:00,38.0,32.0,30.10,NNE,22,1.0,3.0,80,0.00,,,0.00,Rainwise IP-100,2013-04-27 01:32:00,
2013-04-26 21:37:00,38.0,33.0,30.10,NNE,22,0.0,1.0,81,0.00,,,0.00,Rainwise IP-100,2013-04-27 01:37:00,
2013-04-26 21:42:00,37.0,32.0,30.10,NNE,22,0.0,3.0,82,0.00,,,0.00,Rainwise IP-100,2013-04-27 01:42:00,
2013-04-26 21:47:00,37.0,32.0,30.10,NNE,22,0.0,0.0,84,0.00,,,0.00,Rainwise IP-100,2013-04-27 01:47:00,
2013-04-26 21:52:00,37.0,32.0,30.10,NNE,22,0.0,0.0,84,0.00,,,0.00,Rainwise IP-100,2013-04-27 01:52:00,
2013-04-26 21:57:00,36.0,32.0,30.10,NNE,22,2.0,3.0,84,0.00,,,0.00,Rainwise IP-100,2013-04-27 01:57:00,
2013-04-26 22:02:00,36.0,32.0,30.10,NNE,22,2.0,3.0,84,0.00,,,0.00,Rainwise IP-100,2013-04-27 02:02:00,
2013-04-26 22:07:00,36.0,32.0,30.10,NNE,22,0.0,3.0,86,0.00,,,0.00,Rainwise IP-100,2013-04-27 02:07:00,
2013-04-26 22:12:00,35.0,31.0,30.09,NNE,22,0.0,1.0,86,0.00,,,0.00,Rainwise IP-100,2013-04-27 02:12:00,
2013-04-26 22:17:00,35.0,31.0,30.09,NNE,22,1.0,0.0,87,0.00,,,0.00,Rainwise IP-100,2013-04-27 02:17:00,
2013-04-26 22:22:00,35.0,31.0,30.09,NNE,22,0.0,2.0,87,0.00,,,0.00,Rainwise IP-100,2013-04-27 02:22:00,
2013-04-26 22:27:00,36.0,32.0,30.09,NNE,22,0.0,0.0,87,0.00,,,0.00,Rainwise IP-100,2013-04-27 02:27:00,
2013-04-26 22:32:00,35.0,32.0,30.10,NNE,22,0.0,0.0,88,0.00,,,0.00,Rainwise IP-100,2013-04-27 02:32:00,
2013-04-26 22:37:00,35.0,32.0,30.10,NNE,22,0.0,0.0,89,0.00,,,0.00,Rainwise IP-100,2013-04-27 02:37:00,
2013-04-26 22:42:00,35.0,32.0,30.10,NNE,22,0.0,0.0,89,0.00,,,0.00,Rainwise IP-100,2013-04-27 02:42:00,
2013-04-26 22:47:00,36.0,33.0,30.09,NNE,22,4.0,0.0,91,0.00,,,0.00,Rainwise IP-100,2013-04-27 02:47:00,
2013-04-26 22:52:00,37.0,35.0,30.09,NE,45,3.0,5.0,91,0.00,,,0.00,Rainwise IP-100,2013-04-27 02:52:00,
2013-04-26 22:57:00,37.0,35.0,30.09,NE,45,1.0,4.0,91,0.00,,,0.00,Rainwise IP-100,2013-04-27 02:57:00,
2013-04-26 23:02:00,37.0,35.0,30.09,NE,45,1.0,1.0,91,0.00,,,0.00,Rainwise IP-100,2013-04-27 03:02:00,
2013-04-26 23:07:00,36.0,33.0,30.09,NE,45,0.0,2.0,90,0.00,,,0.00,Rainwise IP-100,2013-04-27 03:07:00,
2013-04-26 23:12:00,36.0,33.0,30.09,NE,45,0.0,1.0,90,0.00,,,0.00,Rainwise IP-100,2013-04-27 03:12:00,
2013-04-26 23:17:00,36.0,33.0,30.09,NE,45,0.0,0.0,90,0.00,,,0.00,Rainwise IP-100,2013-04-27 03:17:00,
2013-04-26 23:22:00,36.0,33.0,30.08,NE,45,1.0,1.0,90,0.00,,,0.00,Rainwise IP-100,2013-04-27 03:22:00,
2013-04-26 23:27:00,36.0,33.0,30.08,NE,45,1.0,1.0,90,0.00,,,0.00,Rainwise IP-100,2013-04-27 03:27:00,
2013-04-26 23:32:00,36.0,33.0,30.08,NE,45,1.0,1.0,90,0.00,,,0.00,Rainwise IP-100,2013-04-27 03:32:00,
2013-04-26 23:37:00,35.0,32.0,30.08,NE,45,0.0,2.0,91,0.00,,,0.00,Rainwise IP-100,2013-04-27 03:37:00,
2013-04-26 23:42:00,34.0,32.0,30.09,NE,45,0.0,0.0,92,0.00,,,0.00,Rainwise IP-100,2013-04-27 03:42:00,
2013-04-26 23:47:00,34.0,32.0,30.09,NE,45,0.0,0.0,92,0.00,,,0.00,Rainwise IP-100,2013-04-27 03:47:00,
2013-04-26 23:52:00,34.0,32.0,30.09,NE,45,0.0,0.0,92,0.00,,,0.00,Rainwise IP-100,2013-04-27 03:52:00,
2013-04-26 23:57:00,34.0,33.0,30.08,NE,45,0.0,0.0,93,0.00,,,0.00,Rainwise IP-100,2013-04-27 03:57:00,